This demonstration page uses our WeatherBlox Daily Observations layout. Learn more.

Hourly Observations for October 10, 2020

Temp ( °F °C ) Dew Point ( °F °C ) Humidity (%) Winds ( mph kmh ) Pressure ( in mb ) Visibility ( mi km ) Precip ( " mm )
12:53 am 00:53 Clear 50 10 29 -1.7 44 44 Calm 29.9 1013 10 16.0934 0 0
1:53 am 01:53 Clear 49 9.4 29 -1.7 46 46 Calm 29.9 1012 9 14.48406 0 0
2:53 am 02:53 Clear 45 7.2 29 -1.7 54 54 Calm 29.91 1013 9 14.48406 0 0
3:53 am 03:53 Clear 41 5 28 -2.2 60 60 ENE 3 6 29.91 1013 10 16.0934 0 0
4:53 am 04:53 Clear 44 6.7 29 -1.7 55 55 E 6 9 29.9 1013 10 16.0934 0 0
5:53 am 05:53 Clear 46 7.8 30 -1.1 54 54 E 9 15 29.92 1013 10 16.0934 0 0
6:53 am 06:53 Clear 47 8.3 30 -1.1 52 52 E 13 20 29.92 1013 10 16.0934 0 0
7:53 am 07:53 Sunny 50 10 31 -0.6 48 48 E 9 15 29.92 1013 9 14.48406 0 0
8:53 am 08:53 Sunny 56 13.3 33 0.6 42 42 ESE 9 15 29.93 1013 9 14.48406 0 0
9:53 am 09:53 Sunny 63 17.2 35 1.7 35 35 ESE 12 19 29.91 1013 8 12.87472 0 0
10:53 am 10:53 Sunny 70 21.1 36 2.2 29 29 ESE 14 22 29.88 1012 10 16.0934 0 0
11:53 am 11:53 Sunny 78 25.6 34 1.1 20 20 SE 14 22 29.83 1010 10 16.0934 0 0
12:53 pm 12:53 Sunny 80 26.7 34 1.1 19 19 SSE 14 22 29.79 1009 10 16.0934 0 0
1:53 pm 13:53 Sunny 83 28.3 28 -2.2 13 13 SSE 20 31 29.75 1007 10 16.0934 0 0
2:53 pm 14:53 Sunny 82 27.8 28 -2.2 14 14 SE 23 37 29.72 1006 10 16.0934 0 0
3:53 pm 15:53 Sunny 84 28.9 32 0 15 15 S 17 28 29.69 1005 10 16.0934 0 0
4:53 pm 16:53 Sunny 82 27.8 33 0.6 17 17 SSE 10 17 29.67 1005 10 16.0934 0 0
5:53 pm 17:53 Sunny 78 25.6 33 0.6 19 19 SSE 14 22 29.67 1005 10 16.0934 0 0
6:53 pm 18:53 Clear 70 21.1 35 1.7 28 28 ESE 13 20 29.67 1005 10 16.0934 0 0
7:53 pm 19:53 Clear 65 18.3 36 2.2 34 34 ESE 10 17 29.67 1005 8 12.87472 0 0
8:53 pm 20:53 Clear 62 16.7 34 1.1 35 35 ESE 8 13 29.66 1004 10 16.0934 0 0
9:53 pm 21:53 Clear 62 16.7 35 1.7 37 37 ENE 12 19 29.63 1004 10 16.0934 0 0
10:53 pm 22:53 Clear 67 19.4 35 1.7 31 31 E 13 20 29.6 1002 10 16.0934 0 0
11:53 pm 23:53 Clear 69 20.6 35 1.7 29 29 S 18 30 29.54 1001 10 16.0934 0 0

Powered by AerisWeather